User: anonymous   Login
Location: Simi Valley
(34.2690°N, 118.7810°W)
Time: 04:31:14
(UTC-07:00)
Language:

TITAN 4B R/B - Orbit

View from above orbital plane
View from above orbital plane
View from above satellite
View from above satellite

Ground track
Ground track

The orbit data is extracted from the following two-line orbital elements,

1 28647U 05016B   15209.08909816 0.00003100  00000-0  18548-3 0    03
2 28647  56.9966 294.4381 0135056 164.2507 195.7493 15.03179659    00
Epoch (UTC): 28 July 2015 02:08:18
Eccentricity: 0.0135056
inclination: 56.9966°
perigee height: 463 km
apogee height: 651 km
right ascension of ascending node: 294.4381°
argument of perigee: 164.2507°
revolutions per day: 15.03179659
mean anomaly at epoch: 195.7493°
orbit number at epoch: 0

The dashed part of the orbit path shows where the satellite is in the earth's shadow,  

DLR